[[{"header":{"parameterUnit":"m.s-1","parameterCategory":2,"la1":30.2991,"la2":30.254,"lo1":-89.0895,"lo2":-89.0444,"dy":0.0017,"dx":0.0017,"nx":28,"ny":28,"refTime":"2023-07-26T21:00:00:Z","depth":"0","parameterNumber":2,"parameterNumberName":"U-component_of_CURRENTS"},"data":[0,0,0,0,0,0,0,0,0,0,0,0,0,0,0,0,0,0,0,0,0,0,0,0,0,0,0,0,0,0,0,0,0,0,0,0,0,0,0,0,0,0,0,0,0,0,0,0,0,0,0,0,0,0,0,0,0,0,0.2132,0.2133,0,0.2192,0.2193,0.2194,0.224,0.224,0.2241,0.2241,0.233,0.2332,0.2334,0,0,0,0,0,0,0,0,0,0,0,0,0,0.2082,0.2083,0.2132,0.2133,0.2134,0.2192,0.2193,0.2194,0.224,0.224,0.2241,0.2241,0.2329,0.2331,0.2334,0,0,0,0,0,0,0,0,0,0,0,0,0,0.2121,0.2083,0.2132,0.2162,0.2165,0.2192,0.2193,0.2194,0.224,0.224,0.2241,0.2241,0.2328,0.2331,0.2334,0.2346,0,0,0.2344,0.2345,0,0,0,0,0,0,0,0,0.2119,0.2123,0.2157,0.216,0.2164,0.2208,0.2208,0.2246,0.224,0.2214,0.2241,0.2241,0.229,0.2296,0.2309,0.235,0.2354,0.2344,0.2346,0.2348,0.2348,0,0,0,0,0,0,0,0.2116,0.2121,0.2158,0.2158,0.2162,0.2181,0.2187,0.2215,0.2251,0.2216,0.2219,0.2223,0.2292,0.2306,0.2311,0.2355,0.2344,0.2347,0.2349,0.235,0.2372,0.2371,0,0,0,0,0,0,0.2103,0.2118,0.2156,0.216,0.214,0.2181,0.2188,0.2195,0.225,0.2258,0.2222,0.2224,0.23,0.2308,0.2315,0.2307,0.2347,0.235,0.2352,0.2373,0.2372,0.237,0,0,0,0,0,0,0.2102,0.2106,0.2154,0.2139,0.2146,0.2181,0.2189,0.2195,0.2203,0.2254,0.2263,0.2222,0.2301,0.231,0.2327,0.2312,0.2352,0.2355,0.2375,0.2373,0.2371,0.2308,0,0,0,0,0,0,0.21,0.2105,0.2112,0.2138,0.2146,0.216,0.2188,0.2196,0.2204,0.2208,0.2257,0.2266,0.2302,0.2322,0.233,0.2317,0.2357,0.2377,0.2374,0.2372,0.2312,0.2304,0.2298,0,0,0,0,0,0.2098,0.2097,0.2112,0.2117,0.2152,0.2159,0.2165,0.2193,0.2204,0.2203,0.2231,0.2264,0.2312,0.2324,0.2333,0.2321,0.2378,0.2375,0.2372,0.2315,0.2306,0.2298,0,0,0,0,0,0,0.2066,0.2102,0.212,0.2127,0.2139,0.2166,0.2166,0.2184,0.2206,0.2205,0.2255,0.2265,0.2272,0.23,0.2312,0.2317,0.2347,0.2346,0.2301,0.2292,0.2285,0.227,0.236,0,0,0,0,0,0.2065,0.208,0.2106,0.2108,0.211,0.2136,0.2144,0.2158,0.2178,0.2188,0.2222,0.2249,0.2268,0.2283,0.2306,0.2314,0.2331,0.2308,0.2301,0.2295,0.2287,0.2302,0.2295,0.2361,0.2361,0.2361,0,0,0.205,0.2072,0.208,0.2103,0.2113,0.2111,0.2141,0.2138,0.2138,0.2193,0.2201,0.2227,0.2263,0.227,0.2275,0.2293,0.2282,0.2291,0.2286,0.2281,0.2298,0.2292,0.2286,0.2359,0.2359,0.2359,0,0,0.2019,0.2045,0.2045,0.2054,0.2066,0.2083,0.2077,0.2097,0.2108,0.2119,0.215,0.2161,0.2204,0.2219,0.2234,0.2199,0.2242,0.2208,0.2167,0.2181,0.2176,0.2172,0.2172,0.2168,0.2207,0.2207,0.2207,0,0.1996,0.2006,0.2041,0.2036,0.2037,0.2064,0.2049,0.2062,0.2087,0.2091,0.2111,0.2148,0.2176,0.2179,0.2165,0.2184,0.2198,0.22,0.2173,0.2169,0.2166,0.2167,0.2164,0.2204,0.2204,0.2204,0.2205,0,0.1969,0.1972,0.1962,0.1976,0.1983,0.1967,0.1989,0.1993,0.2011,0.203,0.2036,0.2072,0.2094,0.2101,0.2126,0.2113,0.2131,0.2161,0.2196,0.2156,0.2159,0.2157,0.2199,0.22,0.2201,0.2202,0,0,0.1909,0.194,0.1932,0.1932,0.1947,0.1944,0.194,0.1946,0.194,0.1966,0.1959,0.1986,0.2005,0.2021,0.205,0.2061,0.2045,0.2098,0.2101,0.2101,0.2069,0.2044,0.204,0.208,0.2079,0.2079,0.2075,0,0.1866,0.1854,0.1883,0.1858,0.1847,0.1877,0.1873,0.1885,0.1903,0.1904,0.193,0.194,0.1975,0.1984,0.1995,0.2039,0.2039,0.2043,0.2105,0.2106,0.2092,0.2036,0.2056,0.2051,0.2073,0.2073,0.2073,0,0.1816,0.1821,0.1796,0.1808,0.1804,0.1798,0.1799,0.1802,0.1815,0.1829,0.1841,0.1872,0.1882,0.192,0.1963,0.1969,0.2002,0.2037,0.2038,0.2036,0.2077,0.2098,0.2047,0.2057,0.207,0.207,0.2071,0,0.175,0.1751,0.1734,0.1734,0.1753,0.1747,0.1756,0.1772,0.1775,0.178,0.1787,0.1808,0.1821,0.1868,0.1939,0.1953,0.199,0.2021,0.2024,0.2023,0.2061,0.2063,0.203,0.2036,0.2036,0.2036,0.2036,0,0.1684,0.1661,0.1702,0.1686,0.1671,0.1698,0.1681,0.1695,0.1706,0.1705,0.1742,0.1748,0.1812,0.1851,0.1911,0.1955,0.1969,0.1996,0.2015,0.2036,0.2036,0.2064,0.2016,0.2036,0.2036,0.2036,0.2036,0,0.1595,0.162,0.1604,0.1629,0.1637,0.1622,0.1647,0.1638,0.1658,0.1655,0.1658,0.1698,0.175,0.1817,0.1889,0.1914,0.1904,0.1982,0.199,0.2008,0.1997,0.1943,0.1702,0.1628,0.1964,0.1963,0.1962,0,0.1534,0.1522,0.156,0.1561,0.1567,0.1567,0.1569,0.1602,0.1602,0.1634,0.1626,0.167,0.1704,0.1784,0.1862,0.1936,0.1871,0.1959,0.1977,0.1972,0.1927,0.175,0.1693,0.2003,0.2003,0.2003,0.2002,0,0.1428,0.1458,0.1468,0.1484,0.1489,0.1499,0.1507,0.1508,0.1546,0.1555,0.1578,0.1609,0.1697,0.1769,0.1848,0.191,0.1841,0.1954,0.1963,0.1942,0.1733,0.1682,0.202,0.2001,0.2001,0.2001,0.2001,0.2001,0.1353,0.1353,0.1391,0.1408,0.1415,0.1424,0.1421,0.1441,0.145,0.1458,0.1516,0.155,0.1681,0.1805,0.1859,0.1954,0.1807,0.1965,0.1896,0.1715,0.1629,0.1935,0.1928,0.1928,0.1927,0.1927,0.1927,0,0.1249,0.1288,0.1308,0.1331,0.1324,0.1357,0.1372,0.1368,0.1368,0.1398,0.1419,0.1531,0.1657,0.1785,0.1945,0.1938,0.182,0.1898,0.1713,0.1659,0.1998,0.1997,0.1989,0.1989,0.1989,0.1989,0.1989,0.1989,0.1195,0.1209,0.1252,0.1245,0.1255,0.1243,0.1252,0.1253,0.1273,0.1285,0.1315,0.1363,0.1553,0.1764,0.1908,0.1904,0.1724,0.1614,0.1518,0.1882,0.1885,0.1889,0.1883,0.185,0.1849,0.1176,0.1171,0.1167]},{"header":{"parameterUnit":"m.s-1","parameterCategory":2,"la1":30.2991,"la2":30.254,"lo1":-89.0895,"lo2":-89.0444,"dy":0.0017,"dx":0.0017,"nx":28,"ny":28,"refTime":"2023-07-26T21:00:00:Z","depth":"0","parameterNumber":3,"parameterNumberName":"V-component_of_CURRENTS"},"data":[0,0,0,0,0,0,0,0,0,0,0,0,0,0,0,0,0,0,0,0,0,0,0,0,0,0,0,0,0,0,0,0,0,0,0,0,0,0,0,0,0,0,0,0,0,0,0,0,0,0,0,0,0,0,0,0,0,0,-0.0096,-0.0096,0,-0.001,-0.0009,-0.0008,0.0057,0.0058,0.0058,0.0058,0.02,0.0203,0.0207,0,0,0,0,0,0,0,0,0,0,0,0,0,-0.0154,-0.0154,-0.0096,-0.0095,-0.0095,-0.0011,-0.0009,-0.0008,0.0057,0.0058,0.0058,0.0059,0.0199,0.0203,0.0207,0,0,0,0,0,0,0,0,0,0,0,0,0,-0.0103,-0.0154,-0.0096,-0.0054,-0.0049,-0.0011,-0.0009,-0.0007,0.0057,0.0058,0.0058,0.0059,0.0197,0.0202,0.0207,0.0227,0,0,0.0223,0.0225,0,0,0,0,0,0,0,0,-0.0106,-0.0101,-0.0061,-0.0057,-0.0052,0.0011,0.0022,0.0073,0.0057,0.0019,0.0058,0.0059,0.014,0.015,0.0167,0.0234,0.024,0.0223,0.0227,0.0229,0.023,0,0,0,0,0,0,0,-0.011,-0.0104,-0.006,-0.006,-0.0054,-0.0022,-0.0014,0.0032,0.0078,0.0022,0.0027,0.0033,0.0143,0.0162,0.0171,0.0242,0.0223,0.0228,0.0231,0.0233,0.0374,0.0375,0,0,0,0,0,0,-0.0128,-0.0107,-0.0063,-0.0058,-0.008,-0.0022,-0.0013,-0.0008,0.0076,0.0089,0.0032,0.0035,0.0153,0.0165,0.0176,0.0234,0.0229,0.0233,0.0236,0.0373,0.0374,0.0375,0,0,0,0,0,0,-0.013,-0.0125,-0.0066,-0.0082,-0.0073,-0.0022,-0.0016,-0.0006,0.0012,0.0083,0.0097,0.004,0.0154,0.0169,0.0232,0.0239,0.0236,0.024,0.0373,0.0374,0.0375,0.0331,0,0,0,0,0,0,-0.0132,-0.0126,-0.013,-0.0084,-0.0073,-0.0046,-0.0017,-0.0005,0.0014,0.0019,0.0094,0.0108,0.0156,0.0224,0.0237,0.0246,0.0244,0.0372,0.0373,0.0374,0.0332,0.033,0.0329,0,0,0,0,0,-0.0134,-0.0145,-0.013,-0.0125,-0.0079,-0.0046,-0.0037,0.0003,0.0013,0.0021,0.0081,0.0105,0.0241,0.0229,0.0244,0.0254,0.0371,0.0373,0.0374,0.0332,0.0331,0.0329,0,0,0,0,0,0,-0.0183,-0.0138,-0.0121,-0.0121,-0.0087,-0.0036,-0.0032,-0.0005,0.0046,0.0052,0.0118,0.0137,0.0193,0.023,0.0215,0.03,0.0308,0.0313,0.0271,0.027,0.0269,0.0262,0.0249,0,0,0,0,0,-0.0195,-0.0184,-0.014,-0.0141,-0.0128,-0.0082,-0.0066,-0.0037,0.0012,0.0034,0.009,0.0152,0.021,0.0244,0.0298,0.0345,0.036,0.0361,0.036,0.0359,0.0364,0.04,0.0402,0.038,0.038,0.038,0,0,-0.0216,-0.0191,-0.0186,-0.0149,-0.0123,-0.0095,-0.007,-0.005,-0.0016,0.0042,0.0101,0.0148,0.0222,0.0279,0.0307,0.0312,0.0367,0.0361,0.0359,0.0366,0.0401,0.0403,0.0405,0.0381,0.0381,0.0381,0,0,-0.0246,-0.0231,-0.0224,-0.0194,-0.0156,-0.0119,-0.0117,-0.0063,-0.003,0.0029,0.0081,0.0133,0.0221,0.0276,0.0316,0.034,0.0358,0.0353,0.0347,0.038,0.0382,0.0384,0.0374,0.0375,0.0354,0.0354,0.0354,0,-0.0271,-0.0253,-0.022,-0.0202,-0.0174,-0.0132,-0.0109,-0.0071,0.0001,0.0036,0.0044,0.0174,0.0223,0.0304,0.0313,0.0337,0.0344,0.0342,0.0377,0.0379,0.0382,0.0372,0.0374,0.0352,0.0353,0.0353,0.0353,0,-0.0284,-0.0265,-0.0264,-0.0214,-0.0183,-0.0163,-0.0101,-0.0066,-0.0025,0.0025,0.0102,0.0169,0.0247,0.0265,0.0301,0.0349,0.0341,0.0365,0.0373,0.0381,0.037,0.0373,0.035,0.035,0.0351,0.0351,0,0,-0.0343,-0.028,-0.028,-0.0247,-0.0183,-0.0156,-0.0105,-0.0035,0.0006,0.0065,0.0123,0.0209,0.0234,0.0279,0.032,0.0349,0.0357,0.036,0.0363,0.0337,0.0398,0.0339,0.0336,0.0386,0.0387,0.0388,0.037,0,-0.0358,-0.0321,-0.0282,-0.0237,-0.0206,-0.0145,-0.0094,-0.0027,0.0033,0.0095,0.0159,0.0225,0.0244,0.0273,0.0306,0.0358,0.0368,0.0358,0.0407,0.0407,0.0345,0.034,0.0348,0.033,0.0373,0.0373,0.0374,0,-0.0377,-0.0342,-0.0302,-0.0221,-0.0204,-0.017,-0.0078,-0.0029,0.0063,0.0109,0.0173,0.0223,0.0284,0.0289,0.036,0.0351,0.0366,0.0391,0.0392,0.0359,0.0356,0.0338,0.0334,0.0362,0.0378,0.0378,0.0378,0,-0.0414,-0.0354,-0.0316,-0.029,-0.0199,-0.0168,-0.0121,-0.0027,0.0025,0.0109,0.015,0.0228,0.0265,0.031,0.0356,0.0361,0.0415,0.0431,0.0385,0.0379,0.0408,0.0403,0.0431,0.0464,0.0464,0.0465,0.0465,0,-0.0429,-0.0399,-0.0333,-0.031,-0.0254,-0.0193,-0.0128,-0.0068,0.001,0.0077,0.0144,0.0202,0.0273,0.0319,0.0352,0.0367,0.0409,0.0377,0.0378,0.0388,0.0382,0.0427,0.0434,0.0464,0.0464,0.0464,0.0464,0,-0.0456,-0.042,-0.037,-0.0293,-0.0266,-0.0229,-0.0138,-0.0088,-0.0022,0.006,0.0082,0.0179,0.0238,0.0289,0.0357,0.0351,0.0395,0.0373,0.0352,0.035,0.0313,0.0318,0.0326,0.0396,0.0312,0.031,0.0309,0,-0.0457,-0.0437,-0.0367,-0.0336,-0.0298,-0.0237,-0.0184,-0.0108,-0.0053,0.0057,0.0094,0.0161,0.0233,0.0281,0.0293,0.0309,0.0363,0.0294,0.0307,0.0303,0.0311,0.0316,0.0379,0.0319,0.0318,0.0317,0.0316,0,-0.0445,-0.043,-0.0386,-0.0334,-0.0285,-0.0221,-0.0152,-0.0119,-0.0024,0.004,0.0127,0.0182,0.0225,0.0258,0.0247,0.026,0.0319,0.0272,0.0308,0.0341,0.0315,0.0387,0.0307,0.0309,0.0309,0.031,0.031,0.0311,-0.0436,-0.0403,-0.0357,-0.0304,-0.0258,-0.0202,-0.015,-0.0085,-0.0009,0.0102,0.0139,0.0232,0.0265,0.0264,0.0244,0.0226,0.0258,0.0243,0.0251,0.0258,0.0322,0.0184,0.0163,0.0163,0.0163,0.0163,0.0163,0,-0.0411,-0.0367,-0.032,-0.0258,-0.0216,-0.0193,-0.0112,-0.0059,0.0024,0.0114,0.0194,0.0292,0.0299,0.0302,0.0274,0.0244,0.0278,0.024,0.0294,0.0367,0.0283,0.0281,0.0238,0.0238,0.0238,0.0238,0.0238,0.0238,-0.0384,-0.0333,-0.0301,-0.0221,-0.0187,-0.0112,-0.0068,0.0001,0.0072,0.0193,0.0279,0.0353,0.046,0.0358,0.0325,0.0297,0.0387,0.0293,0.0374,0.0337,0.034,0.0343,0.0345,0.0316,0.0316,0.0505,0.0506,0.0507]}],[{"header":{"parameterUnit":"m.s-1","parameterCategory":2,"la1":30.2991,"la2":30.254,"lo1":-89.0895,"lo2":-89.0444,"dy":0.0017,"dx":0.0017,"nx":28,"ny":28,"refTime":"2023-07-26T21:00:00:Z","depth":"2","parameterNumber":2,"parameterNumberName":"U-component_of_CURRENTS"},"data":[0,0,0,0,0,0,0,0,0,0,0,0,0,0,0,0,0,0,0,0,0,0,0,0,0,0,0,0,0,0,0,0,0,0,0,0,0,0,0,0,0,0,0,0,0,0,0,0,0,0,0,0,0,0,0,0,0,0,-0.0559,-0.0559,0,-0.057,-0.057,-0.0571,-0.0536,-0.0535,-0.0533,-0.0532,-0.0567,-0.0569,-0.0572,0,0,0,0,0,0,0,0,0,0,0,0,0,-0.0419,-0.0423,-0.0559,-0.0559,-0.0559,-0.057,-0.057,-0.0571,-0.0536,-0.0535,-0.0533,-0.0531,-0.0567,-0.0569,-0.0572,0,0,0,0,0,0,0,0,0,0,0,0,0,-0.0464,-0.0424,-0.0559,-0.054,-0.0538,-0.057,-0.057,-0.0571,-0.0537,-0.0535,-0.0533,-0.0531,-0.0566,-0.0569,-0.0572,-0.0636,0,0,-0.0583,-0.0584,0,0,0,0,0,0,0,0,-0.0461,-0.047,-0.0543,-0.0541,-0.0539,-0.0546,-0.0534,-0.0593,-0.0537,-0.0541,-0.0532,-0.053,-0.0561,-0.0565,-0.0577,-0.0637,-0.0639,-0.0583,-0.0585,-0.0586,-0.0587,0,0,0,0,0,0,0,-0.0459,-0.0468,-0.0567,-0.0543,-0.054,-0.0499,-0.0505,-0.0544,-0.0567,-0.0541,-0.0537,-0.0533,-0.0561,-0.0574,-0.0578,-0.0639,-0.0583,-0.0586,-0.0588,-0.0589,-0.0638,-0.0637,0,0,0,0,0,0,-0.0457,-0.0467,-0.0567,-0.0567,-0.049,-0.0504,-0.051,-0.0549,-0.0566,-0.0565,-0.0535,-0.0531,-0.0569,-0.0574,-0.0579,-0.0554,-0.0586,-0.059,-0.0592,-0.0639,-0.0638,-0.0637,0,0,0,0,0,0,-0.0455,-0.0468,-0.0566,-0.051,-0.0519,-0.0509,-0.0553,-0.055,-0.0528,-0.056,-0.056,-0.0509,-0.0568,-0.0574,-0.0582,-0.0558,-0.0591,-0.0594,-0.064,-0.0639,-0.0638,-0.0569,0,0,0,0,0,0,-0.0452,-0.0469,-0.0483,-0.0513,-0.0523,-0.0571,-0.0554,-0.0552,-0.0529,-0.0523,-0.054,-0.0542,-0.0567,-0.0576,-0.0585,-0.0564,-0.0597,-0.0641,-0.0639,-0.0638,-0.0572,-0.0565,-0.056,0,0,0,0,0,-0.0448,-0.0476,-0.0485,-0.0495,-0.055,-0.057,-0.0572,-0.0558,-0.0529,-0.0528,-0.0525,-0.054,-0.0573,-0.0579,-0.0589,-0.0568,-0.0641,-0.064,-0.0638,-0.0574,-0.0566,-0.056,0,0,0,0,0,0,-0.0404,-0.0477,-0.0486,-0.0531,-0.0542,-0.0562,-0.0551,-0.0542,-0.0541,-0.052,-0.0544,-0.0548,-0.0543,-0.057,-0.0576,-0.0577,-0.0605,-0.0606,-0.0553,-0.0546,-0.054,-0.0542,-0.06,0,0,0,0,0,-0.0409,-0.0464,-0.0499,-0.053,-0.0532,-0.0537,-0.0534,-0.0526,-0.0531,-0.0526,-0.0535,-0.0541,-0.0554,-0.0558,-0.058,-0.0593,-0.0621,-0.0582,-0.0576,-0.057,-0.0577,-0.0593,-0.0589,-0.0632,-0.0632,-0.0632,0,0,-0.0406,-0.0444,-0.0477,-0.0525,-0.0529,-0.0538,-0.053,-0.052,-0.0518,-0.0534,-0.0522,-0.0525,-0.0553,-0.0555,-0.0555,-0.0569,-0.0572,-0.0568,-0.0563,-0.0574,-0.0591,-0.0587,-0.0583,-0.0631,-0.0631,-0.0631,0,0,-0.0411,-0.0452,-0.049,-0.05,-0.0502,-0.0513,-0.0502,-0.0507,-0.0496,-0.0499,-0.0494,-0.0481,-0.0512,-0.0518,-0.0529,-0.0508,-0.0539,-0.0503,-0.0475,-0.0489,-0.0486,-0.0483,-0.0508,-0.0509,-0.0499,-0.0499,-0.0499,0,-0.0388,-0.0455,-0.0492,-0.0505,-0.0503,-0.0497,-0.05,-0.0503,-0.0504,-0.0497,-0.0483,-0.0488,-0.0499,-0.0501,-0.0479,-0.0495,-0.051,-0.0498,-0.0481,-0.0479,-0.0478,-0.0504,-0.0505,-0.0495,-0.0496,-0.0496,-0.0496,0,-0.0427,-0.0453,-0.046,-0.0498,-0.05,-0.0498,-0.0504,-0.0491,-0.0468,-0.047,-0.0451,-0.0459,-0.0458,-0.0449,-0.0457,-0.0443,-0.046,-0.047,-0.0498,-0.0469,-0.0499,-0.0501,-0.049,-0.0491,-0.0492,-0.0493,0,0,-0.0435,-0.0485,-0.0481,-0.0487,-0.0491,-0.0498,-0.0486,-0.0489,-0.0475,-0.0459,-0.0447,-0.0435,-0.0414,-0.0424,-0.0418,-0.0421,-0.0411,-0.043,-0.0432,-0.0453,-0.0445,-0.0384,-0.0382,-0.0411,-0.0411,-0.0411,-0.0468,0,-0.044,-0.0473,-0.0495,-0.0498,-0.0507,-0.0495,-0.0494,-0.0484,-0.0471,-0.0461,-0.0444,-0.0432,-0.0414,-0.0392,-0.0389,-0.0411,-0.0415,-0.0395,-0.0473,-0.0476,-0.0423,-0.0382,-0.0373,-0.0416,-0.047,-0.0471,-0.0471,0,-0.0465,-0.0484,-0.0494,-0.0505,-0.0504,-0.0497,-0.0479,-0.0479,-0.0465,-0.045,-0.0422,-0.0414,-0.0397,-0.0388,-0.0407,-0.0391,-0.0408,-0.0428,-0.0431,-0.0403,-0.0419,-0.0455,-0.0419,-0.0476,-0.0476,-0.0475,-0.0475,0,-0.0457,-0.0479,-0.0486,-0.0488,-0.0498,-0.048,-0.0476,-0.046,-0.0459,-0.0431,-0.0423,-0.0406,-0.0399,-0.0408,-0.042,-0.0411,-0.0461,-0.0463,-0.0434,-0.0431,-0.0455,-0.0453,-0.0485,-0.0485,-0.0485,-0.0485,-0.0485,0,-0.0466,-0.0465,-0.0476,-0.0476,-0.047,-0.0469,-0.0452,-0.0443,-0.0433,-0.0434,-0.0405,-0.0411,-0.0402,-0.0422,-0.0431,-0.0432,-0.0469,-0.0423,-0.0433,-0.0429,-0.0423,-0.0506,-0.0507,-0.0487,-0.0487,-0.0486,-0.0486,0,-0.0457,-0.0467,-0.047,-0.0471,-0.0463,-0.0452,-0.0443,-0.0441,-0.0424,-0.0423,-0.0411,-0.0421,-0.0424,-0.0429,-0.0462,-0.0446,-0.0459,-0.0459,-0.0451,-0.0455,-0.0422,-0.0419,-0.0422,-0.042,-0.0418,-0.0417,-0.0416,0,-0.0461,-0.0464,-0.0459,-0.0456,-0.0448,-0.0434,-0.0428,-0.0422,-0.0431,-0.0437,-0.0451,-0.0445,-0.0443,-0.0457,-0.0404,-0.0388,-0.0444,-0.0405,-0.0368,-0.0401,-0.0412,-0.0412,-0.0411,-0.039,-0.0388,-0.0387,-0.0387,0,-0.0469,-0.0456,-0.0465,-0.0456,-0.0443,-0.0446,-0.0442,-0.0447,-0.0447,-0.0444,-0.0457,-0.0451,-0.0417,-0.0375,-0.0336,-0.0343,-0.039,-0.0379,-0.0439,-0.0381,-0.0368,-0.0379,-0.0381,-0.0378,-0.0379,-0.0379,-0.038,-0.038,-0.047,-0.0477,-0.048,-0.0468,-0.0461,-0.0458,-0.0448,-0.045,-0.0449,-0.0428,-0.0451,-0.041,-0.0436,-0.0312,-0.0306,-0.026,-0.0264,-0.0307,-0.0312,-0.0318,-0.0278,-0.0259,-0.0244,-0.0244,-0.0244,-0.0244,-0.0244,0,-0.0488,-0.0492,-0.0497,-0.0491,-0.0492,-0.0466,-0.0464,-0.0453,-0.0432,-0.0395,-0.0365,-0.0356,-0.0323,-0.0318,-0.0188,-0.0168,-0.0194,-0.0221,-0.0269,-0.0278,-0.0285,-0.0245,-0.0202,-0.0202,-0.0201,-0.0201,0,0,-0.0507,-0.0523,-0.0525,-0.0522,-0.0504,-0.048,-0.0464,-0.0428,-0.0397,-0.0339,-0.028,-0.0288,-0.03,-0.0249,-0.025,-0.0187,-0.0239,-0.0199,-0.0234,-0.0298,-0.0305,-0.0335,-0.0282,0,0,0,0,0]},{"header":{"parameterUnit":"m.s-1","parameterCategory":2,"la1":30.2991,"la2":30.254,"lo1":-89.0895,"lo2":-89.0444,"dy":0.0017,"dx":0.0017,"nx":28,"ny":28,"refTime":"2023-07-26T21:00:00:Z","depth":"2","parameterNumber":3,"parameterNumberName":"V-component_of_CURRENTS"},"data":[0,0,0,0,0,0,0,0,0,0,0,0,0,0,0,0,0,0,0,0,0,0,0,0,0,0,0,0,0,0,0,0,0,0,0,0,0,0,0,0,0,0,0,0,0,0,0,0,0,0,0,0,0,0,0,0,0,0,-0.0122,-0.0121,0,-0.0086,-0.0086,-0.0085,-0.0084,-0.0084,-0.0085,-0.0086,-0.0076,-0.0076,-0.0075,0,0,0,0,0,0,0,0,0,0,0,0,0,-0.0184,-0.0183,-0.0122,-0.0121,-0.0121,-0.0086,-0.0086,-0.0085,-0.0084,-0.0084,-0.0085,-0.0086,-0.0077,-0.0076,-0.0075,0,0,0,0,0,0,0,0,0,0,0,0,0,-0.0152,-0.0183,-0.0122,-0.0118,-0.0118,-0.0086,-0.0086,-0.0085,-0.0084,-0.0085,-0.0085,-0.0086,-0.0077,-0.0076,-0.0075,-0.0047,0,0,-0.0071,-0.007,0,0,0,0,0,0,0,0,-0.0153,-0.0149,-0.0119,-0.0118,-0.0118,-0.0092,-0.0104,-0.0074,-0.0083,-0.0094,-0.0086,-0.0087,-0.0085,-0.0083,-0.0071,-0.0047,-0.0046,-0.0071,-0.007,-0.0069,-0.0069,0,0,0,0,0,0,0,-0.0156,-0.0151,-0.0105,-0.0119,-0.0118,-0.0117,-0.0113,-0.0098,-0.0083,-0.0093,-0.0094,-0.0093,-0.0085,-0.0072,-0.0071,-0.0046,-0.0071,-0.0069,-0.0069,-0.0068,-0.0063,-0.0064,0,0,0,0,0,0,-0.0164,-0.0152,-0.0106,-0.0104,-0.0141,-0.0115,-0.0111,-0.0098,-0.0083,-0.0082,-0.0092,-0.0093,-0.0073,-0.0072,-0.007,-0.0084,-0.0069,-0.0068,-0.0067,-0.0063,-0.0063,-0.0064,0,0,0,0,0,0,-0.0165,-0.0159,-0.0108,-0.0131,-0.0124,-0.0114,-0.0098,-0.0097,-0.0104,-0.0082,-0.0082,-0.0105,-0.0074,-0.0072,-0.0071,-0.0082,-0.0068,-0.0066,-0.0062,-0.0063,-0.0064,-0.0082,0,0,0,0,0,0,-0.0167,-0.016,-0.0153,-0.013,-0.0123,-0.0099,-0.0098,-0.0095,-0.0102,-0.0103,-0.0092,-0.0091,-0.0075,-0.0073,-0.007,-0.008,-0.0065,-0.0061,-0.0062,-0.0063,-0.008,-0.0083,-0.0086,0,0,0,0,0,-0.0169,-0.0157,-0.0153,-0.0148,-0.0114,-0.0099,-0.0095,-0.009,-0.0102,-0.0101,-0.0098,-0.0093,-0.0079,-0.0072,-0.0068,-0.0079,-0.006,-0.0062,-0.0063,-0.0079,-0.0083,-0.0086,0,0,0,0,0,0,-0.0208,-0.0155,-0.0151,-0.0132,-0.0122,-0.01,-0.01,-0.0101,-0.0096,-0.0108,-0.0092,-0.0089,-0.0094,-0.0085,-0.0078,-0.0083,-0.0072,-0.0073,-0.0086,-0.0089,-0.0092,-0.0082,-0.0064,0,0,0,0,0,-0.0206,-0.0171,-0.0146,-0.0138,-0.0132,-0.0121,-0.0117,-0.0117,-0.011,-0.011,-0.0101,-0.0098,-0.0092,-0.0091,-0.0081,-0.0078,-0.006,-0.0087,-0.0089,-0.0091,-0.0082,-0.0073,-0.0074,-0.0069,-0.0069,-0.0069,0,0,-0.022,-0.0191,-0.0173,-0.0141,-0.0134,-0.0119,-0.0121,-0.0124,-0.0118,-0.0109,-0.0105,-0.0105,-0.0094,-0.009,-0.0093,-0.0087,-0.0082,-0.0093,-0.0095,-0.0084,-0.0075,-0.0075,-0.0075,-0.007,-0.0069,-0.0069,0,0,-0.0229,-0.0207,-0.0178,-0.0164,-0.0152,-0.0138,-0.0145,-0.0131,-0.0132,-0.0124,-0.0124,-0.0132,-0.0115,-0.0109,-0.0104,-0.0117,-0.0096,-0.0124,-0.0127,-0.0119,-0.0119,-0.0119,-0.0088,-0.0085,-0.0126,-0.0126,-0.0126,0,-0.0263,-0.021,-0.0177,-0.0157,-0.015,-0.0149,-0.014,-0.0131,-0.0123,-0.0123,-0.0129,-0.0121,-0.0119,-0.0115,-0.0122,-0.0122,-0.0106,-0.0114,-0.0121,-0.012,-0.012,-0.0089,-0.0085,-0.0127,-0.0127,-0.0127,-0.0127,0,-0.0235,-0.021,-0.0204,-0.0161,-0.015,-0.0149,-0.0132,-0.0131,-0.0136,-0.0127,-0.0133,-0.013,-0.0126,-0.0135,-0.0128,-0.0131,-0.0116,-0.0124,-0.011,-0.0121,-0.0088,-0.0084,-0.0128,-0.0128,-0.0128,-0.0127,0,0,-0.0293,-0.0197,-0.0204,-0.0181,-0.0155,-0.0147,-0.0136,-0.0121,-0.0123,-0.0121,-0.0121,-0.0122,-0.0132,-0.0128,-0.0135,-0.0131,-0.0116,-0.0127,-0.0126,-0.009,-0.008,-0.0071,-0.0065,-0.0127,-0.0127,-0.0126,-0.0055,0,-0.0299,-0.0242,-0.0198,-0.0177,-0.0153,-0.014,-0.0129,-0.0121,-0.0117,-0.0114,-0.0121,-0.0123,-0.0126,-0.0137,-0.0133,-0.0125,-0.0107,-0.0134,-0.0079,-0.0077,-0.0063,-0.0061,-0.0025,0.0041,-0.0051,-0.005,-0.0049,0,-0.0297,-0.0254,-0.022,-0.0167,-0.0161,-0.0157,-0.0145,-0.0131,-0.0122,-0.0123,-0.0125,-0.0124,-0.0122,-0.0129,-0.0099,-0.0116,-0.0093,-0.0082,-0.008,-0.006,-0.006,0.0035,0.0053,-0.0042,-0.0043,-0.0043,-0.0044,0,-0.034,-0.028,-0.0248,-0.0233,-0.0176,-0.0179,-0.0162,-0.015,-0.014,-0.0135,-0.0135,-0.0125,-0.0126,-0.0103,-0.008,-0.0087,-0.0041,-0.0048,-0.001,-0.0008,0.0041,0.0046,-0.0014,-0.0014,-0.0015,-0.0015,-0.0015,0,-0.0352,-0.0337,-0.0269,-0.0257,-0.0247,-0.0207,-0.0208,-0.0191,-0.0174,-0.0168,-0.015,-0.0151,-0.0122,-0.0094,-0.007,-0.0024,-0.0028,0.0002,0.0009,0.0035,0.0039,-0.0024,-0.0026,-0.0012,-0.0013,-0.0013,-0.0014,0,-0.0397,-0.0348,-0.032,-0.0271,-0.0264,-0.0265,-0.0231,-0.0222,-0.0206,-0.0198,-0.0197,-0.0163,-0.013,-0.0088,-0.0045,-0.0009,0.0029,0.0048,0.0087,0.0097,0.0061,0.0057,0.0111,0.0111,0.0112,0.0113,0.0113,0,-0.0404,-0.0391,-0.035,-0.034,-0.0324,-0.031,-0.0299,-0.026,-0.0243,-0.0212,-0.0208,-0.0172,-0.0133,-0.005,0.0033,0.0113,0.0047,0.0152,0.0139,0.0071,0.0073,0.0068,0.0063,0.0207,0.0208,0.0209,0.021,0,-0.0427,-0.0425,-0.0389,-0.0376,-0.0368,-0.0339,-0.0315,-0.031,-0.0265,-0.0249,-0.0225,-0.0189,-0.0074,0.0026,0.0133,0.0173,0.0142,0.0175,0.01,0.0156,0.0163,0.0164,0.0156,0.0219,0.0218,0.0217,0.0217,0.0216,-0.0458,-0.0437,-0.0402,-0.0392,-0.0381,-0.0363,-0.0349,-0.0309,-0.0283,-0.021,-0.0197,-0.0099,-0.0035,0.017,0.0217,0.0268,0.0254,0.0236,0.0232,0.0228,0.0212,0.0219,0.0284,0.0284,0.0283,0.0283,0.0282,0,-0.0482,-0.0438,-0.0414,-0.0385,-0.0382,-0.0378,-0.0347,-0.0307,-0.0273,-0.0162,-0.0089,0.0016,0.0151,0.0195,0.0324,0.0371,0.0386,0.0328,0.0323,0.0315,0.0307,0.0294,0.0389,0.0389,0.0389,0.039,0,0,-0.0476,-0.0432,-0.0398,-0.0387,-0.0385,-0.0371,-0.036,-0.0287,-0.0195,-0.0085,0.0016,0.0178,0.02,0.0281,0.0321,0.0359,0.0333,0.0373,0.0289,0.0273,0.0266,0.0261,0.0233,0,0,0,0,0]}],[{"header":{"parameterUnit":"m.s-1","parameterCategory":2,"la1":30.2991,"la2":30.254,"lo1":-89.0895,"lo2":-89.0444,"dy":0.0017,"dx":0.0017,"nx":28,"ny":28,"refTime":"2023-07-26T21:00:00:Z","depth":"4","parameterNumber":2,"parameterNumberName":"U-component_of_CURRENTS"},"data":[0,0,0,0,0,0,0,0,0,0,0,0,0,0,0,0,0,0,0,0,0,0,0,0,0,0,0,0,0,0,0,0,0,0,0,0,0,0,0,0,0,0,0,0,0,0,0,0,0,0,0,0,0,0,0,0,0,0,-0.0724,-0.0725,0,-0.0765,-0.0765,-0.0766,-0.0783,-0.0783,-0.0784,-0.0784,-0.0917,-0.092,-0.0923,0,0,0,0,0,0,0,0,0,0,0,0,0,-0.0599,-0.0601,-0.0724,-0.0725,-0.0726,-0.0765,-0.0765,-0.0766,-0.0783,-0.0783,-0.0784,-0.0784,-0.0915,-0.0919,-0.0923,0,0,0,0,0,0,0,0,0,0,0,0,0,-0.0644,-0.0602,-0.0724,-0.0743,-0.0745,-0.0765,-0.0765,-0.0766,-0.0783,-0.0783,-0.0784,-0.0784,-0.0914,-0.0919,-0.0924,-0.0944,0,0,-0.0938,-0.0941,0,0,0,0,0,0,0,0,-0.0642,-0.0648,-0.0739,-0.0742,-0.0744,-0.0773,-0.077,-0.0831,-0.0783,-0.0764,-0.0784,-0.0785,-0.088,-0.0887,-0.0886,-0.095,-0.0955,-0.0939,-0.0942,-0.0944,-0.0945,0,0,0,0,0,0,0,-0.0639,-0.0646,-0.0736,-0.074,-0.0743,-0.0728,-0.0735,-0.0781,-0.0817,-0.0766,-0.0768,-0.0779,-0.0881,-0.0882,-0.089,-0.0957,-0.0939,-0.0943,-0.0946,-0.0948,-0.1182,-0.1185,0,0,0,0,0,0,-0.0646,-0.0644,-0.0735,-0.0738,-0.0698,-0.0731,-0.0738,-0.076,-0.0814,-0.0824,-0.0779,-0.078,-0.0873,-0.0884,-0.0895,-0.1069,-0.0944,-0.0948,-0.0951,-0.1178,-0.1182,-0.1186,0,0,0,0,0,0,-0.0643,-0.0654,-0.0733,-0.0694,-0.0704,-0.0733,-0.0757,-0.0761,-0.0795,-0.0824,-0.0835,-0.0814,-0.0874,-0.0888,-0.0944,-0.1069,-0.0951,-0.0955,-0.1174,-0.118,-0.1184,-0.1323,0,0,0,0,0,0,-0.0639,-0.0652,-0.0683,-0.0695,-0.0707,-0.0755,-0.0757,-0.0761,-0.0802,-0.0804,-0.0858,-0.0868,-0.0875,-0.0937,-0.0949,-0.1073,-0.0959,-0.117,-0.1177,-0.1183,-0.1314,-0.1332,-0.1347,0,0,0,0,0,-0.0635,-0.0662,-0.0685,-0.0696,-0.0744,-0.0756,-0.076,-0.0778,-0.0803,-0.0813,-0.0847,-0.0868,-0.0987,-0.0941,-0.0955,-0.1085,-0.1167,-0.1175,-0.1182,-0.1307,-0.1329,-0.1347,0,0,0,0,0,0,-0.0619,-0.0667,-0.0692,-0.0734,-0.0754,-0.0761,-0.0777,-0.0802,-0.0835,-0.0853,-0.0881,-0.0893,-0.0998,-0.1006,-0.0955,-0.1169,-0.1095,-0.1105,-0.1185,-0.1206,-0.1222,-0.1224,-0.0963,0,0,0,0,0,-0.0634,-0.0675,-0.0703,-0.0741,-0.075,-0.0776,-0.0792,-0.081,-0.0836,-0.0853,-0.0892,-0.0954,-0.1035,-0.1086,-0.1127,-0.1231,-0.1171,-0.1331,-0.1348,-0.1362,-0.1373,-0.1344,-0.1357,-0.121,-0.121,-0.121,0,0,-0.0652,-0.0674,-0.0706,-0.0742,-0.0758,-0.0779,-0.0785,-0.0817,-0.0862,-0.0866,-0.0939,-0.1,-0.1067,-0.118,-0.1235,-0.121,-0.1372,-0.1371,-0.1383,-0.1386,-0.1353,-0.1366,-0.1379,-0.1215,-0.1214,-0.1214,0,0,-0.0667,-0.0711,-0.0739,-0.0755,-0.0787,-0.0801,-0.0822,-0.0854,-0.0894,-0.0971,-0.1008,-0.1132,-0.122,-0.1312,-0.1372,-0.1507,-0.1444,-0.1543,-0.1655,-0.1627,-0.1638,-0.1647,-0.1574,-0.1576,-0.1571,-0.1571,-0.1571,0,-0.0679,-0.0718,-0.0747,-0.0759,-0.0782,-0.0818,-0.0843,-0.0889,-0.0944,-0.1008,-0.1011,-0.1232,-0.1298,-0.1487,-0.155,-0.1556,-0.1483,-0.1576,-0.1646,-0.1654,-0.166,-0.1583,-0.1583,-0.1579,-0.1578,-0.1577,-0.1576,0,-0.0692,-0.0738,-0.0746,-0.0787,-0.0816,-0.0838,-0.0898,-0.0947,-0.1021,-0.1102,-0.1289,-0.1385,-0.1534,-0.1605,-0.1631,-0.1771,-0.1682,-0.165,-0.1588,-0.1683,-0.1596,-0.1593,-0.1589,-0.1587,-0.1584,-0.1583,0,0,-0.0688,-0.0745,-0.0759,-0.0786,-0.0832,-0.0858,-0.0935,-0.1034,-0.1141,-0.1255,-0.1409,-0.1619,-0.1716,-0.1789,-0.187,-0.1888,-0.1901,-0.1804,-0.1799,-0.1718,-0.178,-0.1595,-0.1572,-0.1851,-0.1852,-0.1853,-0.1693,0,-0.0688,-0.0723,-0.076,-0.0821,-0.0841,-0.0898,-0.0978,-0.1091,-0.1219,-0.137,-0.1551,-0.173,-0.1777,-0.1894,-0.1931,-0.1895,-0.19,-0.1944,-0.1712,-0.1705,-0.1518,-0.1567,-0.1856,-0.169,-0.1689,-0.1688,-0.1688,0,-0.0697,-0.0712,-0.0764,-0.0852,-0.0872,-0.0924,-0.1071,-0.1177,-0.1395,-0.1521,-0.1737,-0.1832,-0.1988,-0.1981,-0.1969,-0.1974,-0.1907,-0.1854,-0.1844,-0.1622,-0.1516,-0.158,-0.1681,-0.1681,-0.1682,-0.1682,-0.1683,0,-0.0674,-0.0736,-0.0782,-0.0801,-0.0892,-0.0949,-0.1044,-0.1241,-0.137,-0.1653,-0.1738,-0.1935,-0.2005,-0.1974,-0.1898,-0.1916,-0.1781,-0.1785,-0.1557,-0.154,-0.169,-0.1682,-0.1754,-0.1754,-0.1754,-0.1755,-0.1755,0,-0.0661,-0.0697,-0.0782,-0.0795,-0.0868,-0.0984,-0.113,-0.1276,-0.1518,-0.1639,-0.1849,-0.186,-0.1986,-0.1916,-0.1874,-0.1674,-0.1756,-0.1569,-0.1494,-0.175,-0.1752,-0.1685,-0.1679,-0.1749,-0.175,-0.1751,-0.1752,0,-0.0638,-0.0686,-0.0728,-0.0822,-0.0856,-0.0944,-0.113,-0.1243,-0.149,-0.1633,-0.1706,-0.1797,-0.164,-0.1691,-0.1593,-0.1583,-0.1461,-0.1374,-0.1611,-0.1552,-0.1245,-0.1249,-0.1108,-0.11,-0.1094,-0.1088,-0.1084,0,-0.0628,-0.0655,-0.0731,-0.0746,-0.0785,-0.0912,-0.0973,-0.1231,-0.1301,-0.148,-0.1457,-0.1425,-0.1424,-0.1147,-0.1209,-0.1142,-0.114,-0.1156,-0.1271,-0.1241,-0.1183,-0.1197,-0.121,-0.1073,-0.1072,-0.107,-0.1068,0,-0.0598,-0.064,-0.0663,-0.0685,-0.0728,-0.0765,-0.0847,-0.0888,-0.1119,-0.1303,-0.1191,-0.1181,-0.0983,-0.0916,-0.0908,-0.0854,-0.1212,-0.1089,-0.1104,-0.1212,-0.1197,-0.1149,-0.1169,-0.1046,-0.1049,-0.1051,-0.1052,0,-0.0575,-0.0582,-0.0614,-0.0626,-0.0641,-0.0592,-0.0663,-0.0649,-0.0757,-0.096,-0.0828,-0.0811,-0.085,-0.0744,-0.0677,-0.0678,-0.0684,-0.0787,-0.0819,-0.0845,-0.0847,-0.0796,-0.0446,0,0,0,0,0,-0.0552,-0.0543,-0.0549,-0.0521,-0.0516,-0.0512,-0.0542,-0.0608,-0.0738,-0.063,-0.0788,-0.0599,-0.0559,-0.0491,-0.0429,-0.0529,-0.0683,-0.0466,-0.0818,-0.0921,-0.0947,-0.0982,0,0,0,0,0,0,-0.0525,-0.0531,-0.0523,-0.0415,-0.0373,-0.034,-0.0344,-0.0432,-0.0343,-0.0494,-0.0385,-0.0588,-0.0441,-0.0556,-0.0412,-0.0422,-0.0645,-0.0491,-0.0491,-0.0906,-0.093,-0.095,-0.0996,0,0,0,0,0]},{"header":{"parameterUnit":"m.s-1","parameterCategory":2,"la1":30.2991,"la2":30.254,"lo1":-89.0895,"lo2":-89.0444,"dy":0.0017,"dx":0.0017,"nx":28,"ny":28,"refTime":"2023-07-26T21:00:00:Z","depth":"4","parameterNumber":3,"parameterNumberName":"V-component_of_CURRENTS"},"data":[0,0,0,0,0,0,0,0,0,0,0,0,0,0,0,0,0,0,0,0,0,0,0,0,0,0,0,0,0,0,0,0,0,0,0,0,0,0,0,0,0,0,0,0,0,0,0,0,0,0,0,0,0,0,0,0,0,0,0.0069,0.007,0,0.0106,0.0106,0.0106,0.0131,0.0132,0.0133,0.0133,0.0179,0.018,0.018,0,0,0,0,0,0,0,0,0,0,0,0,0,-0.0009,-0.0008,0.0069,0.007,0.0071,0.0106,0.0106,0.0106,0.0131,0.0132,0.0133,0.0134,0.0179,0.018,0.018,0,0,0,0,0,0,0,0,0,0,0,0,0,0.0021,-0.0007,0.0069,0.0092,0.0094,0.0106,0.0106,0.0106,0.0131,0.0132,0.0133,0.0134,0.0179,0.0179,0.018,0.0166,0,0,0.0183,0.0184,0,0,0,0,0,0,0,0,0.002,0.0024,0.0087,0.009,0.0093,0.0119,0.0095,0.0128,0.0131,0.0112,0.0133,0.0135,0.0163,0.0165,0.0162,0.0168,0.017,0.0183,0.0184,0.0184,0.0184,0,0,0,0,0,0,0,0.0018,0.0022,0.0079,0.0088,0.0092,0.009,0.0095,0.0101,0.0127,0.0114,0.0117,0.0129,0.0164,0.0161,0.0164,0.0171,0.0183,0.0184,0.0185,0.0185,0.0162,0.0161,0,0,0,0,0,0,0.0024,0.002,0.0078,0.008,0.0064,0.0091,0.0096,0.0106,0.0127,0.0133,0.0128,0.013,0.0159,0.0162,0.0165,0.0173,0.0184,0.0185,0.0186,0.0163,0.0161,0.016,0,0,0,0,0,0,0.0022,0.0028,0.0076,0.0055,0.0062,0.0092,0.0102,0.0106,0.0116,0.0139,0.0144,0.0135,0.016,0.0164,0.0147,0.0175,0.0185,0.0186,0.0164,0.0162,0.0161,0.0174,0,0,0,0,0,0,0.0019,0.0027,0.0036,0.0056,0.0064,0.0082,0.0102,0.0106,0.0124,0.0127,0.0147,0.0151,0.0161,0.0145,0.0148,0.0176,0.0187,0.0166,0.0163,0.0161,0.0175,0.0173,0.0171,0,0,0,0,0,0.0016,0.0024,0.0036,0.0044,0.0075,0.0082,0.0085,0.0106,0.0123,0.012,0.0115,0.0151,0.0135,0.0144,0.0148,0.0177,0.0167,0.0164,0.0162,0.0176,0.0173,0.0171,0,0,0,0,0,0,-0.0007,0.0028,0.0042,0.006,0.0072,0.0089,0.0094,0.0109,0.0104,0.0106,0.0125,0.0128,0.0123,0.0133,0.0143,0.0158,0.0162,0.016,0.0172,0.0169,0.0167,0.0206,0.0188,0,0,0,0,0,-0.0007,0.0009,0.0034,0.0047,0.0054,0.0074,0.0083,0.0094,0.0096,0.0097,0.0107,0.0112,0.0113,0.0126,0.0117,0.0127,0.0153,0.0147,0.0145,0.0144,0.0173,0.0213,0.0219,0.0152,0.0152,0.0152,0,0,-0.0011,0.001,0.0021,0.0044,0.0055,0.0041,0.008,0.0089,0.0067,0.0101,0.0074,0.0098,0.0105,0.0105,0.0109,0.0124,0.0169,0.0141,0.014,0.0171,0.0211,0.0219,0.0225,0.015,0.015,0.0151,0,0,-0.0019,0.0005,0.0012,0.001,0.0028,0.0029,0.0033,0.0047,0.0044,0.0023,0.0044,0.0088,0.0067,0.0106,0.0116,0.01,0.0143,0.0093,0.0141,0.0178,0.0185,0.0192,0.0212,0.0221,0.0111,0.0111,0.0111,0,-0.0029,-0.0018,0.0012,0.0001,-0.0014,0.0019,-0.0007,-0.0011,-0.0009,-0.0023,0.0007,0.0041,0.0075,0.0106,0.0124,0.0106,0.012,0.0154,0.0181,0.0188,0.0195,0.0214,0.0224,0.0112,0.0112,0.0112,0.0112,0,-0.004,-0.0043,-0.0045,-0.0055,-0.0072,-0.0084,-0.0094,-0.0109,-0.01,-0.0097,-0.0069,0.0007,0.0054,0.0074,0.0109,0.0182,0.017,0.0162,0.0199,0.0204,0.0221,0.0231,0.0112,0.0112,0.0112,0.0112,0,0,-0.0046,-0.005,-0.0055,-0.0084,-0.0107,-0.0129,-0.0178,-0.021,-0.0241,-0.0181,-0.017,-0.008,0.0022,0.0047,0.0131,0.0206,0.0291,0.0231,0.0232,0.0272,0.0362,0.0234,0.0232,0.0287,0.0289,0.0291,0.0348,0,-0.007,-0.0096,-0.0107,-0.0174,-0.0198,-0.0226,-0.0285,-0.0316,-0.0318,-0.0303,-0.0172,-0.0116,-0.0011,0.0077,0.0167,0.0245,0.0321,0.0276,0.0334,0.0336,0.024,0.0241,0.0298,0.0355,0.0357,0.0359,0.036,0,-0.0085,-0.0104,-0.0155,-0.0243,-0.0262,-0.0314,-0.0405,-0.0444,-0.0435,-0.0403,-0.0285,-0.0189,-0.001,0.008,0.0258,0.0222,0.0319,0.0381,0.0383,0.0276,0.0226,0.0352,0.0378,0.0377,0.0376,0.0374,0.0373,0,-0.0098,-0.0156,-0.02,-0.0228,-0.031,-0.0369,-0.0422,-0.0476,-0.0509,-0.0413,-0.0376,-0.0205,-0.0072,0.0073,0.0238,0.0264,0.0384,0.0415,0.0384,0.0374,0.0473,0.0466,0.0545,0.0545,0.0545,0.0545,0.0545,0,-0.0126,-0.0173,-0.021,-0.0243,-0.0339,-0.0391,-0.049,-0.051,-0.0508,-0.052,-0.0374,-0.0297,-0.0061,0.0033,0.0195,0.0292,0.0348,0.0401,0.0385,0.0469,0.046,0.0479,0.047,0.0547,0.0546,0.0546,0.0546,0,-0.0145,-0.0156,-0.022,-0.0303,-0.0342,-0.0409,-0.0524,-0.0577,-0.0561,-0.0545,-0.048,-0.0355,-0.0238,-0.0089,0.0114,0.0205,0.0326,0.0346,0.0394,0.0377,0.0315,0.0306,0.0348,0.0344,0.034,0.0337,0.0335,0,-0.0159,-0.0176,-0.0255,-0.0301,-0.0347,-0.0447,-0.0518,-0.0565,-0.058,-0.0582,-0.0533,-0.0456,-0.0358,-0.0178,-0.0034,0.0162,0.0206,0.0273,0.0362,0.0317,0.0298,0.0294,0.029,0.033,0.0329,0.0328,0.0327,0,-0.0194,-0.0203,-0.0253,-0.0321,-0.0399,-0.0489,-0.0562,-0.0567,-0.0599,-0.0606,-0.0531,-0.0444,-0.0374,-0.0206,-0.0109,0.0056,0.0236,0.024,0.0252,0.0336,0.0296,0.0279,0.0279,0.0315,0.0317,0.0318,0.0319,0,-0.0219,-0.0251,-0.0285,-0.0356,-0.0436,-0.0482,-0.0537,-0.0547,-0.0567,-0.0537,-0.0532,-0.045,-0.0401,-0.0269,-0.0162,-0.006,0.0019,0.0133,0.0152,0.0166,0.0082,0.0002,-0.0073,0,0,0,0,0,-0.0243,-0.0268,-0.0325,-0.0389,-0.0456,-0.0492,-0.0546,-0.0576,-0.0598,-0.0533,-0.0523,-0.0447,-0.0331,-0.0282,-0.0191,-0.0223,0.0017,-0.0116,0.0156,0.0251,0.0264,0.0183,0,0,0,0,0,0,-0.0264,-0.0306,-0.0318,-0.0382,-0.0422,-0.0494,-0.0514,-0.0533,-0.0473,-0.0483,-0.0406,-0.0413,-0.0289,-0.0376,-0.0185,-0.0169,0.0022,-0.0078,-0.0075,0.0243,0.0255,0.0266,0.0188,0,0,0,0,0]}]]